Regional Weather Roundup
Issued by NWS Upton, NY

Current Version | Previous Version | Text Only | Print | Product List | Glossary On
Versions: 1 2 3 4 5 6 7 8 9 10 11 12 13 14 15 16 17 18 19 20 21 22 23 24 25 26 27
000 ASUS41 KOKX 180608 RWROKX Regional Weather Roundup National Weather Service New York NY 100 AM EST MON DEC 18 2017 Note: "FAIR" indicates few or no clouds below 12,000 feet with no significant weather and/or obstructions to visibility. NYZ071-072-176-178-NJZ106-104-180700- New York City Metro Area CITY SKY/WX TMP DP RH WIND PRES REMARKS Central Park CLOUDY 35 24 64 E6 30.21F WCI 30 Bronx Bot Gard N/A 34 25 69 E2 30.21F Bronx Lehman C N/A 34 25 69 E3 N/A LaGuardia Arpt CLOUDY 35 24 64 E7 30.19F WCI 29 Queens College N/A 34 25 69 E7 N/A WCI 28 Kennedy Intl CLOUDY 33 24 69 NE8 30.21S WCI 26 Breezy Point N/A 34 N/A N/A NE8G14 N/A WCI 27 Brooklyn Coll N/A 36 25 64 NE6 N/A WCI 31 Staten Island N/A 36 28 75 NE3 N/A Newark/Liberty CLOUDY 37 28 70 NE5 30.19F WCI 33 Teterboro CLOUDY 36 25 64 NE3 30.19F $$ NYZ177-179-078>081-180700- Long Island New York CITY SKY/WX TMP DP RH WIND PRES REMARKS Jones Beach N/A 34 N/A N/A NE10 N/A WCI 26 Wantagh N/A 34 23 64 NE5 N/A WCI 30 Matinecock Pt N/A 34 N/A N/A SE5 N/A WCI 30 Farmingdale CLOUDY 33 22 63 E3 30.19F MacArthur/ISP CLOUDY 32 22 66 NE5 30.19F WCI 27 Shirley CLOUDY 32 21 64 CALM 30.21F Mt Sinai Harb N/A N/A N/A N/A SE5 N/A Westhampton CLOUDY 32 16 51 NE6 30.22F WCI 26 East Hampton MOCLDY 31 16 54 CALM 30.21S Southold N/A 32 19 59 SE2 N/A Montauk N/A 34 12 40 NE5 30.21F WCI 30 $$ NYZ052-065-067-180700- Hudson Valley CITY SKY/WX TMP DP RH WIND PRES REMARKS White Plains CLOUDY 30 18 60 CALM 30.17F Larchmont Harb N/A 32 N/A N/A N6 N/A WCI 26 Croton On Huds N/A 32 N/A N/A MISG N/A Somers N/A 30 18 59 NE1 N/A Brewster N/A 28 18 64 N1 N/A Newburgh CLOUDY 27 19 74 CALM 30.19F Montgomery CLOUDY 27 17 66 CALM 30.17F Otisville N/A 27 18 69 CALM N/A Warwick N/A 28 21 74 W1 N/A Suffern N/A 30 23 74 N1 N/A Poughkeepsie CLOUDY 27 16 63 CALM 30.20S Albany FLURRIES 19 9 65 N6 30.21S WCI 11 $$ NJZ001-105-106-008-010-013-015-019>022-104-180700- New Jersey CITY SKY/WX TMP DP RH WIND PRES REMARKS Newark/Liberty CLOUDY 37 28 70 NE5 30.19F WCI 33 Teterboro CLOUDY 36 25 64 NE3 30.19F Caldwell CLOUDY 33 25 72 NE3 30.20S Somerville LGT RAIN 34 28 79 CALM 30.17F Linden CLOUDY 37 28 71 CALM 30.19F Perth Amboy N/A 36 N/A N/A NE7 N/A WCI 30 Sussex CLOUDY 29 20 69 E3 30.17F Andover NOT AVBL Trenton CLOUDY 37 33 85 NE7 30.14F WCI 32 Millville LGT RAIN 38 36 92 CALM 30.14F Atlantic City CLOUDY 41 37 86 CALM 30.15F Wrightstown CLOUDY 37 34 91 E3 30.12F Toms River CLOUDY 35 33 92 CALM 30.16F Belmar CLOUDY 42 38 85 E7 30.17F $$ PAZ047>061-062-071-180700- Eastern Pennsylvania CITY SKY/WX TMP DP RH WIND PRES REMARKS Philadelphia CLOUDY 37 32 82 N5 30.16F WCI 33 Allentown CLOUDY 34 26 72 NE6 30.16S WCI 29 Scranton CLOUDY 32 26 78 CALM 30.10F $$ CTZ002-004>006-009-010-012-RIZ004-006-007-MAZ004-011-015-180700- Southern New England In CT CITY SKY/WX TMP DP RH WIND PRES REMARKS Bradley Intl CLOUDY 26 13 57 CALM 30.20F Hartford CLOUDY 28 10 46 CALM 30.21F Danbury CLOUDY 29 15 56 E3 30.20S Wtrbury/Oxford CLOUDY 27 15 61 CALM 30.17F Norwalk Harbor N/A N/A N/A N/A N8 N/A Bridgeport CLOUDY 32 14 47 NE6 30.21F WCI 26 Meriden CLOUDY 28 11 48 CALM 30.21F New Haven CLOUDY 31 15 52 N3 30.21F Chester CLOUDY 28 10 47 CALM 30.19F Groton CLOUDY 29 10 45 NE6 30.21F WCI 23 Willimantic CLOUDY 25 17 72 NE3 30.22F In RI CITY SKY/WX TMP DP RH WIND PRES REMARKS Providence CLOUDY 26 19 74 CALM 30.24F Block Island CLOUDY 31 15 52 N3 30.22F Westerly CLOUDY 28 16 60 CALM 30.23F In MA CITY SKY/WX TMP DP RH WIND PRES REMARKS Boston CLOUDY 22 7 52 N5 30.24F WCI 16 Worcester CLOUDY 18 8 65 CALM 30.15F Westfield CLOUDY 23 14 68 N3 30.20F Provincetown CLOUDY 28 12 51 N6 30.24S WCI 22 Nantucket CLOUDY 26 15 63 CALM 30.23F $$ ANZ330-335-338-340-345-350-353-355-180700- Coastal Marine Observations STATION/POSITION TIME SKY/WX TEMP WIND PRES VSBY WAVE AIR SEA DIR/SP/G HT/PER (UTC) (F) (DEG/KT/KT) (MB) (MI) (FT/S) NY Harb Entrance 0550 42 50 90/ 12/ 14 1021.4 2/ 3 20 S Fire Island 0450 41 50 100/ 10/ 12 1022.6 2/ 6 15 E Barnegat Li 0530 49 N/A 3/ 3 Hudson Canyon 0450 47 54 100/ 12/ 16 1021.7 2/ 8 Kings Point 0548 34 42 170/ 2/ 3 1023.5 Execution Rocks 0530 36 110/ 8/ 8 N/A Western LI Sound NOT AVBL Central LI Sound 0530 35 70/ 8/ 10 N/A 0 Robbins Reef 0548 36 60/ 8/ 10 1022.8 $$ >>>>>>>>>>>>>>>>>>>>>>>>>>>> KEY <<<<<<<<<<<<<<<<<<<<<<<<<<< > < > SKY/WX - Sky Condition/Present Weather < > TMP - Temperature in Fahrenheit < > DP - Dew Point in Fahrenheit < > RH - Relative Humidity in Percent < > WIND - Direction (from) and Speed in MPH < > PRES - Mean Sea Level Pressure (inches of Hg) < > WCI - Wind Chill Index < > VSB - Visibility in Miles < > HX - Heat Index < > TC - Temperature in Celsius < > VRB - Varibale Wind Direction < > < >>>>>>>>>>>>>>>>>>>>>>>>>>>> KEY <<<<<<<<<<<<<<<<<<<<<<<<<<<

USA.gov is the U.S. government's official web portal to all federal, state and local government web resources and services.